Home   Weather   Stanley   Past weeks

Flag for Falkland Islands Past Weather in Stanley, Falkland Islands — Yesterday and Last 2 Weeks

Now
48 °F

Partly sunny.


Feels Like: 45 °F
Forecast: 49 / 57 °F
Wind: 8 mph from West

Location: Mount Pleasant Airport

Current Time: Feb 20, 2017 at 10:05:18 pm

Latest Report: Feb 20, 2017 at 8:50 pm


Visibility: N/A

Pressure: 29.68 "Hg

Humidity: 87%

Dew Point: 45 °F

Location of StanleyLocation

Past Weather in Stanley — Graph

°F

Stanley Temperature Yesterday

Maximum temperature yesterday: 57 °F (at 12:50 pm)
Minimum temperature yesterday: 41 °F (at 5:50 am)
Average temperature yesterday: 48 °F

High & Low Weather Summary for the Past Weeks

 TemperatureHumidityPressure
High75 °F (Feb 11, 1:50 pm)100% (Feb 6, 5:50 am)30.07 "Hg (Feb 6, 5:50 am)
Low41 °F (Feb 19, 5:50 am)39% (Feb 12, 12:50 pm)28.71 "Hg (Feb 18, 12:50 am)
Average54 °F80%29.60 "Hg
* Reported Feb 5 8:50 pm — Feb 20 8:50 pm, Stanley, Weather by CustomWeather, © 2017

Note: Actual official high and low records may vary slightly from our data, if they occured in-between our weather recording intervals... More about our weather records

Advertising

Stanley Weather History for the Previous 24 Hours

Scroll right to see more
 ConditionsComfort  
Time TempWeatherWind HumidityBarometerVisibility
8:50 pm
Mon, Feb 20
48 °FPartly sunny.8 mph87%29.68 "HgN/A
7:50 pm52 °FPartly sunny.12 mph77%29.68 "HgN/A
6:50 pm54 °FPartly sunny.12 mph72%29.65 "HgN/A
5:50 pm55 °FPartly sunny.12 mph67%29.62 "HgN/A
4:50 pm54 °FPartly sunny.13 mph77%29.62 "HgN/A
3:50 pm55 °FBroken clouds.15 mph72%29.59 "HgN/A
2:50 pm59 °FPartly sunny.16 mph51%29.59 "HgN/A
1:50 pm57 °FPartly sunny.18 mph59%29.56 "HgN/A
12:50 pm57 °FBroken clouds.21 mph59%29.56 "HgN/A
11:50 am57 °FScattered clouds.25 mph59%29.53 "HgN/A
10:50 am57 °FScattered clouds.25 mph67%29.50 "HgN/A
9:50 am54 °FPassing clouds.26 mph77%29.47 "HgN/A
8:50 am52 °FPassing clouds.24 mph82%29.45 "HgN/A
7:50 am50 °FPassing clouds.16 mph88%29.45 "HgN/A
6:50 am46 °FPassing clouds.18 mph93%29.42 "HgN/A
5:50 am46 °FClear.18 mph87%29.39 "Hg10 mi
4:50 am46 °FClear.17 mph87%29.36 "Hg10 mi
3:50 am45 °FClear.15 mph100%29.36 "Hg10 mi
2:50 am45 °FPassing clouds.13 mph93%29.33 "HgN/A
1:50 am46 °FPassing clouds.10 mph100%29.33 "HgN/A
12:50 am46 °FPartly cloudy.7 mph100%29.30 "HgN/A
11:50 pm
Sun, Feb 19
46 °FPassing clouds.2 mph100%29.27 "HgN/A
10:50 pm46 °FClear.7 mph93%29.21 "Hg10 mi
Weather by CustomWeather, © 2017

See weather overviewHow to use our weather pages